Home   Weather   Gelendzhik   Past weeks

Flag for Russia Past Weather in Gelendzhik, Russia — Yesterday and Last 2 Weeks

Now
37 °F

Clear.


Feels Like: 30 °F
Forecast: 22 / 37 °F
Wind: 10 mph from Northwest

Location: Anapa / Vitiazevo

Current Time: Dec 4, 2016 at 3:04:53 am

Latest Report: Dec 4, 2016 at 2:00 am


Visibility: N/A

Pressure: 30.12 "Hg

Humidity: 81%

Dew Point: 32 °F

Location of GelendzhikLocation

Past Weather in Gelendzhik — Graph

°F

Gelendzhik Temperature Yesterday

Maximum temperature yesterday: 46 °F (at 1:00 am)
Minimum temperature yesterday: 36 °F (at 1:00 pm)
Average temperature yesterday: 40 °F

High & Low Weather Summary for the Past Weeks

 TemperatureHumidityPressure
High55 °F (Nov 28, 6:30 am)100% (Nov 19, 2:00 am)30.54 "Hg (Nov 19, 2:00 am)
Low18 °F (Dec 2, 1:00 am)60% (Nov 23, 11:00 am)29.45 "Hg (Dec 3, 4:00 am)
Average38 °F87%30.14 "Hg
* Reported Nov 19 2:00 am — Dec 4 2:00 am, Gelendzhik, Weather by CustomWeather, © 2016

Note: Actual official high and low records may vary slightly from our data, if they occured in-between our weather recording intervals... More about our weather records

Advertising

Gelendzhik Weather History for the Previous 24 Hours

Scroll right to see more
 ConditionsComfort  
Time TempWeatherWind HumidityBarometerVisibility
2:00 am
Sun, Dec 4
37 °FClear.10 mph81%30.12 "HgN/A
1:30 am39 °FChilly.15 mph75%30.12 "HgN/A
1:00 am36 °FClear.6 mph81%30.12 "HgN/A
12:30 am37 °FClear.10 mph81%30.09 "HgN/A
12:00 am37 °FChilly.10 mph81%30.09 "HgN/A
11:30 pm
Sat, Dec 3
37 °FChilly.10 mph81%30.09 "HgN/A
11:00 pm37 °FClear.15 mph81%30.09 "HgN/A
10:30 pm37 °FClear.15 mph81%30.07 "HgN/A
10:00 pm39 °FClear.20 mph75%30.07 "HgN/A
9:30 pm39 °FClear.20 mph75%30.07 "HgN/A
9:00 pm39 °FClear.17 mph75%30.04 "HgN/A
8:30 pm37 °FClear.15 mph87%30.04 "HgN/A
8:00 pm39 °FClear.22 mph75%30.04 "HgN/A
7:30 pm39 °FPassing clouds.22 mph75%30.01 "HgN/A
7:00 pm39 °FPassing clouds.17 mph75%30.01 "HgN/A
6:30 pm39 °FPassing clouds.24 mph70%30.01 "HgN/A
6:00 pm39 °FPassing clouds.26 mph70%29.98 "HgN/A
5:30 pm39 °FPassing clouds.24 mph70%29.95 "HgN/A
5:00 pm39 °FPassing clouds.26 mph70%29.95 "HgN/A
4:30 pm39 °FPartly sunny.29 mph65%29.95 "HgN/A
4:00 pm39 °FPartly sunny.29 mph70%29.92 "HgN/A
3:30 pm37 °FPartly sunny.22 mph70%29.92 "HgN/A
3:00 pm36 °FPartly sunny.29 mph75%29.89 "HgN/A
2:30 pm36 °FPartly sunny.24 mph81%29.89 "HgN/A
2:00 pm36 °FPartly sunny.29 mph81%29.86 "HgN/A
1:30 pm36 °FMostly cloudy.24 mph87%29.83 "HgN/A
1:00 pm36 °FSnow flurries. Mostly cloudy.26 mph87%29.80 "Hg2 mi
12:30 pm37 °FSprinkles. Broken clouds.26 mph87%29.77 "HgN/A
12:00 pm37 °FBroken clouds.20 mph87%29.74 "HgN/A
11:00 am37 °FBroken clouds.24 mph93%29.68 "HgN/A
10:30 am37 °FBroken clouds.15 mph93%29.68 "HgN/A
10:00 am37 °FBroken clouds.13 mph93%29.65 "HgN/A
9:30 am37 °FLight rain. Mostly cloudy.13 mph93%29.59 "Hg4 mi
9:00 am37 °FLight rain. Mostly cloudy.15 mph93%29.59 "Hg4 mi
8:30 am39 °FLight rain. Mostly cloudy.13 mph87%29.59 "Hg3 mi
8:00 am39 °FChilly.10 mph87%29.56 "HgN/A
7:30 am39 °FClear.8 mph87%29.53 "Hg6 mi
7:00 am39 °FClear.10 mph93%29.53 "HgN/A
6:30 am41 °FClear.13 mph93%29.50 "Hg6 mi
6:00 am41 °FClear.10 mph93%29.47 "Hg5 mi
5:00 am46 °FClear.26 mph82%29.45 "Hg4 mi
4:30 am45 °FClear.26 mph87%29.45 "Hg5 mi
4:00 am45 °FClear.26 mph87%29.45 "Hg5 mi
3:30 am45 °FClear.24 mph87%29.47 "Hg4 mi
3:00 am45 °FQuite cool.29 mph81%29.47 "Hg1 mi
Weather by CustomWeather, © 2016

See weather overviewHow to use our weather pages